User: anonymous   Login
Location: Unspecified
(0.0000°N, 0.0000°E)
Time: 07:04:59
(UTC+00:00)
Language:

DX 1 - Orbit

View from above orbital plane
View from above orbital plane
View from above satellite
View from above satellite

Ground track
Ground track

The orbit data is extracted from the following two-line orbital elements,

1 40071U 14037C   20192.07707740  .00000062  00000-0  15508-4 0  9994
2 40071  98.4605  11.7286 0009573  67.7196 292.5029 14.81374223324600
Epoch (UTC): 10 July 2020 01:50:59
Eccentricity: 0.0009573
inclination: 98.4605°
perigee height: 618 km
apogee height: 631 km
right ascension of ascending node: 11.7286°
argument of perigee: 67.7196°
revolutions per day: 14.81374223
mean anomaly at epoch: 292.5029°
orbit number at epoch: 32460

The dashed part of the orbit path shows where the satellite is in the earth's shadow,  

DLR